Flag for Lithuania Weather past 2 weeks in Kaunas, Lithuania

Now
32 °F

Overcast.


Feels Like: 22 °F
Forecast: 28 / 35 °F
Wind: 14 mph from South

Location: Kaunas

Current Time: Jan 29, 2015 at 12:20:52 AM

Latest Report: Jan 28, 2015 at 11:20 PM


Visibility: N/A

Pressure: 29.53 "Hg

Humidity: 75%

Dew point: 25 °F

Location of KaunasLocation

Historic Weather in Kaunas — Graph

°F

Kaunas temperature yesterday

Maximum temperature yesterday: 32 °F (at 11:20 AM)
Minimum temperature yesterday: 28 °F (at 5:50 AM)
Average temperature yesterday: 31 °F

Past Weeks' High & Low Weather Summary

 TemperatureHumidityPressure
High43 °F (Jan 13, 10:20 PM)100% (Jan 23, 4:50 PM)30.21 "Hg (Jan 23, 4:50 PM)
Low23 °F (Jan 19, 12:20 AM)64% (Jan 20, 12:50 PM)29.56 "Hg (Jan 13, 10:20 PM)
Average32 °F86%29.98 "Hg
* Reported Jan 13 10:20 PM — Jan 28 10:50 PM, Kaunas, Weather by CustomWeather, © 2014

Note: Actual official high and low records may vary slightly from our data, if they occured in-between our weather recording intervals... More about our weather records

Advertising

Kaunas weather history for previous 24 hours

 ConditionsComfort  
Time TempWeatherWind HumidityBarometerVisibility
10:50 PM
Jan 28
32 °FOvercast.8 mph80%29.56 "HgN/A
10:20 PM32 °FOvercast.8 mph87%29.56 "Hg5 mi
9:50 PM32 °FOvercast.7 mph87%29.59 "Hg6 mi
9:20 PM32 °FMostly cloudy.7 mph87%29.59 "Hg6 mi
8:50 PM32 °FOvercast.6 mph87%29.59 "Hg5 mi
8:20 PM32 °FIce fog.5 mph93%29.62 "Hg3 mi
7:50 PM32 °FIce fog.5 mph87%29.62 "Hg2 mi
7:20 PM32 °FIce fog.5 mph93%29.65 "Hg2 mi
6:50 PM32 °FIce fog.6 mph93%29.65 "Hg2 mi
6:20 PM32 °FIce fog.7 mph87%29.65 "Hg1 mi
5:50 PM32 °FSnow. Ice fog.7 mph87%29.68 "Hg1 mi
5:20 PM32 °FLight freezing rain. Ice fog.6 mph87%29.68 "Hg1 mi
4:50 PM32 °FLight freezing rain. Ice fog.7 mph87%29.68 "Hg1 mi
4:20 PM32 °FLight freezing rain. Ice fog.6 mph87%29.68 "Hg2 mi
3:50 PM32 °FIce fog.6 mph87%29.68 "Hg2 mi
3:20 PM32 °FIce fog.6 mph80%29.68 "Hg2 mi
2:50 PM32 °FIce fog.7 mph87%29.71 "Hg2 mi
2:20 PM32 °FIce fog.6 mph87%29.71 "Hg2 mi
1:50 PM32 °FIce fog.5 mph87%29.71 "Hg2 mi
1:20 PM32 °FIce fog.5 mph87%29.71 "Hg2 mi
12:50 PM32 °FIce fog.3 mph87%29.74 "Hg2 mi
12:20 PM32 °FIce fog.3 mph87%29.74 "Hg2 mi
11:50 AM32 °FIce fog.2 mph87%29.74 "Hg1 mi
11:20 AM32 °FIce fog.1 mph87%29.77 "Hg1 mi
10:50 AM30 °FIce fog.No wind93%29.77 "Hg1 mi
10:20 AM30 °FIce fog.No wind93%29.77 "Hg1 mi
9:50 AM30 °FIce fog.No wind93%29.77 "Hg1 mi
9:20 AM28 °FIce fog.No wind100%29.77 "Hg1 mi
8:50 AM28 °FIce fog.No wind93%29.77 "Hg1 mi
8:20 AM28 °FIce fog.No wind93%29.77 "Hg1 mi
7:50 AM28 °FIce fog.No wind93%29.77 "Hg1 mi
7:20 AM28 °FChilly.No wind93%29.77 "Hg1 mi
6:50 AM28 °FIce fog.No wind93%29.77 "Hg1 mi
6:20 AM28 °FChilly.No wind93%29.77 "Hg1 mi
5:50 AM28 °FIce fog.2 mph93%29.77 "Hg1 mi
5:20 AM30 °FIce fog.3 mph93%29.77 "Hg1 mi
4:50 AM30 °FIce fog.3 mph93%29.77 "Hg1 mi
4:20 AM30 °FIce fog.3 mph93%29.77 "Hg1 mi
3:50 AM30 °FLight freezing rain. Ice fog.3 mph93%29.77 "Hg1 mi
3:20 AM30 °FLight freezing rain. Low clouds.3 mph93%29.80 "Hg1 mi
2:50 AM30 °FLight snow. Mostly cloudy.2 mph93%29.80 "Hg1 mi
2:20 AM30 °FLight snow. Low clouds.3 mph93%29.80 "Hg2 mi
1:50 AM30 °FLight snow. Low clouds.2 mph93%29.80 "Hg2 mi
1:20 AM30 °FSleet. Low clouds.3 mph93%29.80 "Hg2 mi
12:50 AM30 °FLight freezing rain. Low clouds.5 mph93%29.80 "Hg1 mi
12:20 AM30 °FSleet. Low clouds.5 mph93%29.80 "Hg2 mi
Weather by CustomWeather, © 2014

See weather overviewHow to use our weather pages